User: anonymous   Login
Location: Columbia
(38.9520°N, 92.3340°W)
Time: 12:36:14
(UTC-05:00)
Language:

Iridium 52 - Orbit

View from above orbital plane
View from above orbital plane
View from above satellite
View from above satellite

Ground track
Ground track

The orbit data is extracted from the following two-line orbital elements,

1 25169U 98010A   17085.87518808 +.00000174 +00000-0 +55169-4 0  9999
2 25169 086.4003 024.7886 0002295 084.6313 275.5144 14.34220554999706
Epoch (UTC): 26 March 2017 21:00:16
Eccentricity: 0.0002295
inclination: 86.4003°
perigee height: 776 km
apogee height: 779 km
right ascension of ascending node: 24.7886°
argument of perigee: 84.6313°
revolutions per day: 14.34220554
mean anomaly at epoch: 275.5144°
orbit number at epoch: 99970

The dashed part of the orbit path shows where the satellite is in the earth's shadow,  

DLR